[[{"header":{"parameterUnit":"m.s-1","parameterCategory":1,"la1":30.2991,"la2":30.254,"lo1":-89.0895,"lo2":-89.0444,"dy":0.0017,"dx":0.0017,"nx":28,"ny":28,"refTime":"2024-03-11T21:00:00:Z","depth":0,"parameterNumber":2,"parameterNumberName":"U-component_of_WINDS"},"data":[0,0,0,0,0,0,0,0,0,0,0,0,0,0,0,0,0,0,0,0,0,0,0,0,0,0,0,0,0,0,0,0,0,0,0,0,0,0,0,0,0,0,0,0,0,0,0,0,0,0,0,0,0,0,0,0,0,0,-1.5209,-1.521,0,-1.5266,-1.5266,-1.5267,-1.5273,-1.5273,-1.5272,-1.5272,-1.533,-1.5332,-1.5334,0,0,0,0,0,0,0,0,0,0,0,0,0,-1.5107,-1.5109,-1.5209,-1.521,-1.5211,-1.5265,-1.5266,-1.5267,-1.5274,-1.5273,-1.5272,-1.5272,-1.5329,-1.5332,-1.5334,0,0,0,0,0,0,0,0,0,0,0,0,0,-1.5156,-1.511,-1.5209,-1.522,-1.5222,-1.5265,-1.5266,-1.5267,-1.5274,-1.5273,-1.5272,-1.5271,-1.5329,-1.5332,-1.5335,-1.5371,0,0,-1.5344,-1.5345,0,0,0,0,0,0,0,0,-1.5154,-1.516,-1.5218,-1.522,-1.5222,-1.5262,-1.5252,-1.5302,-1.5274,-1.5254,-1.5272,-1.5271,-1.5308,-1.5313,-1.5325,-1.5373,-1.5376,-1.5344,-1.5346,-1.5348,-1.5348,0,0,0,0,0,0,0,-1.515,-1.5158,-1.5232,-1.5219,-1.5221,-1.5223,-1.5229,-1.5261,-1.5285,-1.5256,-1.5256,-1.5263,-1.5309,-1.5322,-1.5327,-1.5377,-1.5344,-1.5347,-1.5349,-1.535,-1.5456,-1.5457,0,0,0,0,0,0,-1.5145,-1.5155,-1.523,-1.5233,-1.5185,-1.5225,-1.5232,-1.525,-1.5285,-1.5289,-1.5264,-1.5263,-1.5317,-1.5323,-1.5329,-1.5372,-1.5348,-1.535,-1.5352,-1.5455,-1.5456,-1.5457,0,0,0,0,0,0,-1.5142,-1.5151,-1.5227,-1.5194,-1.5204,-1.5228,-1.5248,-1.5251,-1.5264,-1.5291,-1.5295,-1.5273,-1.5317,-1.5324,-1.536,-1.5374,-1.5352,-1.5355,-1.5454,-1.5455,-1.5457,-1.5459,0,0,0,0,0,0,-1.514,-1.515,-1.5164,-1.5195,-1.5206,-1.5258,-1.5249,-1.5253,-1.527,-1.527,-1.53,-1.5305,-1.5317,-1.5355,-1.5363,-1.5378,-1.5357,-1.5453,-1.5455,-1.5456,-1.5458,-1.5461,-1.5463,0,0,0,0,0,-1.5136,-1.5163,-1.5165,-1.5174,-1.5224,-1.5258,-1.5265,-1.5278,-1.5271,-1.5285,-1.5302,-1.5304,-1.5372,-1.5359,-1.5367,-1.5384,-1.5452,-1.5454,-1.5456,-1.5457,-1.546,-1.5463,0,0,0,0,0,0,-1.5134,-1.5167,-1.517,-1.5208,-1.523,-1.5259,-1.5277,-1.5281,-1.5306,-1.5305,-1.532,-1.5327,-1.5362,-1.5377,-1.5362,-1.542,-1.5411,-1.5415,-1.5409,-1.5412,-1.5414,-1.5409,-1.536,0,0,0,0,0,-1.5139,-1.5164,-1.5192,-1.5222,-1.5233,-1.5254,-1.5269,-1.5277,-1.5301,-1.5311,-1.533,-1.5353,-1.538,-1.5397,-1.5423,-1.5461,-1.5467,-1.5476,-1.5478,-1.548,-1.5483,-1.5503,-1.5507,-1.5464,-1.5464,-1.5464,0,0,-1.5147,-1.5168,-1.5184,-1.5223,-1.5241,-1.5266,-1.5261,-1.5289,-1.5308,-1.5315,-1.5349,-1.5364,-1.5391,-1.5428,-1.5445,-1.5441,-1.5497,-1.5483,-1.5484,-1.5486,-1.5506,-1.551,-1.5513,-1.5466,-1.5465,-1.5465,0,0,-1.5176,-1.5195,-1.5222,-1.524,-1.5268,-1.5281,-1.5288,-1.5316,-1.5326,-1.5361,-1.5366,-1.539,-1.5435,-1.5454,-1.5469,-1.5504,-1.5507,-1.5513,-1.5525,-1.5544,-1.5547,-1.555,-1.5562,-1.5566,-1.5516,-1.5516,-1.5516,0,-1.5183,-1.5222,-1.5236,-1.5263,-1.5279,-1.5287,-1.5314,-1.5331,-1.5366,-1.5377,-1.5373,-1.5429,-1.5448,-1.5488,-1.5497,-1.5509,-1.5517,-1.5508,-1.5546,-1.5549,-1.5552,-1.5563,-1.5567,-1.5516,-1.5516,-1.5516,-1.5516,0,-1.5229,-1.5256,-1.5274,-1.5307,-1.5326,-1.5353,-1.537,-1.5388,-1.5395,-1.5408,-1.5443,-1.5466,-1.5496,-1.5506,-1.5513,-1.5547,-1.5544,-1.5543,-1.5534,-1.5556,-1.5567,-1.5571,-1.5517,-1.5516,-1.5516,-1.5516,0,0,-1.5257,-1.5297,-1.5303,-1.5318,-1.5349,-1.537,-1.5397,-1.5426,-1.544,-1.5464,-1.5487,-1.5525,-1.5524,-1.5541,-1.555,-1.5568,-1.5592,-1.5564,-1.5565,-1.5567,-1.563,-1.563,-1.5635,-1.5595,-1.5596,-1.5596,-1.5627,0,-1.5288,-1.5337,-1.535,-1.539,-1.5415,-1.5422,-1.5446,-1.5467,-1.5481,-1.5503,-1.5519,-1.5545,-1.5541,-1.5552,-1.5569,-1.5586,-1.5605,-1.5584,-1.5615,-1.5616,-1.5607,-1.564,-1.5641,-1.5669,-1.5632,-1.5632,-1.5633,0,-1.5331,-1.5355,-1.5398,-1.5425,-1.5435,-1.5456,-1.5483,-1.5505,-1.553,-1.5538,-1.5558,-1.5565,-1.5594,-1.5584,-1.5623,-1.5608,-1.5622,-1.5632,-1.5634,-1.5636,-1.5625,-1.5642,-1.5678,-1.5682,-1.564,-1.5639,-1.5639,0,-1.5346,-1.5389,-1.542,-1.5432,-1.5465,-1.5479,-1.5493,-1.5517,-1.5533,-1.5557,-1.5568,-1.5595,-1.561,-1.5631,-1.5645,-1.5637,-1.5683,-1.5675,-1.569,-1.569,-1.5698,-1.5697,-1.5735,-1.5709,-1.5709,-1.5709,-1.5709,0,-1.5378,-1.5404,-1.5427,-1.5446,-1.5474,-1.5489,-1.5518,-1.5532,-1.5553,-1.5575,-1.5583,-1.5604,-1.5622,-1.5645,-1.5657,-1.5687,-1.5694,-1.5701,-1.5703,-1.5699,-1.5698,-1.5708,-1.5706,-1.571,-1.571,-1.571,-1.571,0,-1.5399,-1.5415,-1.5449,-1.5477,-1.5485,-1.5505,-1.5529,-1.5547,-1.5561,-1.5588,-1.5596,-1.5617,-1.5645,-1.5661,-1.5696,-1.5704,-1.5736,-1.5739,-1.5728,-1.5729,-1.5742,-1.574,-1.5787,-1.5793,-1.5764,-1.5765,-1.5765,0,-1.5418,-1.5437,-1.5467,-1.5482,-1.5496,-1.5521,-1.5537,-1.5553,-1.5569,-1.5598,-1.5613,-1.5641,-1.5664,-1.5707,-1.5726,-1.5752,-1.5755,-1.5769,-1.5759,-1.5753,-1.5753,-1.5751,-1.5753,-1.577,-1.5771,-1.5771,-1.5771,0,-1.5449,-1.5456,-1.5479,-1.5505,-1.5525,-1.5546,-1.5567,-1.5579,-1.5598,-1.5617,-1.5644,-1.5662,-1.5697,-1.5724,-1.5752,-1.5767,-1.5772,-1.5774,-1.5779,-1.5774,-1.5766,-1.5769,-1.5731,-1.5773,-1.5773,-1.5772,-1.5772,-1.5772,-1.5469,-1.5486,-1.5509,-1.5535,-1.5552,-1.5572,-1.559,-1.5606,-1.5629,-1.5659,-1.5667,-1.5695,-1.5719,-1.5757,-1.5772,-1.5795,-1.5793,-1.58,-1.5801,-1.5802,-1.5802,-1.5764,-1.58,-1.58,-1.58,-1.58,-1.58,0,-1.5499,-1.5514,-1.5538,-1.5567,-1.5587,-1.559,-1.5613,-1.563,-1.5654,-1.5676,-1.5698,-1.5729,-1.5755,-1.5776,-1.5803,-1.5817,-1.582,-1.5824,-1.5822,-1.5825,-1.5803,-1.5796,-1.5821,-1.5821,-1.5821,-1.5821,-1.5821,-1.5821,-1.5517,-1.5546,-1.5556,-1.5594,-1.5609,-1.5637,-1.565,-1.5668,-1.5685,-1.5719,-1.5741,-1.5754,-1.5775,-1.5804,-1.5828,-1.5833,-1.5842,-1.5845,-1.5851,-1.5829,-1.5827,-1.5825,-1.5818,-1.5847,-1.5847,-1.5871,-1.5871,-1.5872]},{"header":{"parameterUnit":"m.s-1","parameterCategory":1,"la1":30.2991,"la2":30.254,"lo1":-89.0895,"lo2":-89.0444,"dy":0.0017,"dx":0.0017,"nx":28,"ny":28,"refTime":"2024-03-11T21:00:00:Z","depth":0,"parameterNumber":3,"parameterNumberName":"V-component_of_WINDS"},"data":[0,0,0,0,0,0,0,0,0,0,0,0,0,0,0,0,0,0,0,0,0,0,0,0,0,0,0,0,0,0,0,0,0,0,0,0,0,0,0,0,0,0,0,0,0,0,0,0,0,0,0,0,0,0,0,0,0,0,2.2467,2.2467,0,2.245,2.245,2.2449,2.2495,2.2497,2.2498,2.2499,2.2477,2.2475,2.2473,0,0,0,0,0,0,0,0,0,0,0,0,0,2.2538,2.2536,2.2467,2.2467,2.2467,2.245,2.245,2.2449,2.2495,2.2497,2.2498,2.25,2.2478,2.2475,2.2473,0,0,0,0,0,0,0,0,0,0,0,0,0,2.2512,2.2536,2.2467,2.2488,2.2489,2.245,2.245,2.2449,2.2495,2.2497,2.2499,2.2501,2.2479,2.2476,2.2473,2.2411,0,0,2.2464,2.2463,0,0,0,0,0,0,0,0,2.2513,2.2509,2.2485,2.2486,2.2488,2.2477,2.2466,2.2436,2.2494,2.2492,2.25,2.2502,2.2475,2.2473,2.2464,2.241,2.2409,2.2464,2.2462,2.2461,2.246,0,0,0,0,0,0,0,2.2515,2.251,2.246,2.2484,2.2486,2.2497,2.2496,2.2461,2.2472,2.2493,2.2496,2.2494,2.2476,2.2467,2.2464,2.2409,2.2464,2.2461,2.2459,2.2458,2.2306,2.2304,0,0,0,0,0,0,2.2515,2.2512,2.2461,2.246,2.2506,2.2494,2.2492,2.2478,2.2472,2.2473,2.2492,2.2496,2.2471,2.2467,2.2464,2.2393,2.2461,2.2458,2.2456,2.2308,2.2305,2.2303,0,0,0,0,0,0,2.2516,2.251,2.2461,2.2487,2.2481,2.249,2.2474,2.2477,2.2468,2.2472,2.2473,2.2481,2.2473,2.2468,2.2425,2.2392,2.2457,2.2454,2.2311,2.2307,2.2304,2.2249,0,0,0,0,0,0,2.2518,2.251,2.2487,2.2486,2.248,2.2423,2.2472,2.2475,2.2463,2.2468,2.2461,2.2462,2.2474,2.2429,2.2422,2.239,2.2452,2.2314,2.2309,2.2305,2.2254,2.2244,2.2236,0,0,0,0,0,2.252,2.2471,2.2486,2.2479,2.2452,2.2422,2.2418,2.2434,2.246,2.2437,2.244,2.2463,2.2397,2.2424,2.2417,2.2383,2.2316,2.2311,2.2306,2.2258,2.2246,2.2236,0,0,0,0,0,0,2.2466,2.2471,2.2487,2.2436,2.2429,2.2429,2.2401,2.242,2.2403,2.2408,2.2427,2.2425,2.2379,2.2377,2.2407,2.2324,2.2361,2.2354,2.2327,2.2316,2.2308,2.2309,2.2449,0,0,0,0,0,2.2448,2.2425,2.243,2.2384,2.238,2.2391,2.2378,2.2391,2.2383,2.238,2.2379,2.2369,2.2347,2.2332,2.2311,2.2254,2.2254,2.2227,2.2219,2.2211,2.2205,2.2176,2.2165,2.2286,2.2286,2.2286,0,0,2.2411,2.2411,2.2394,2.2374,2.2369,2.2344,2.2388,2.2358,2.2339,2.2375,2.2335,2.2334,2.2325,2.2275,2.2253,2.2272,2.2172,2.2205,2.2199,2.2196,2.217,2.2158,2.2148,2.2282,2.2283,2.2284,0,0,2.233,2.2328,2.2291,2.2286,2.2279,2.2287,2.2278,2.2277,2.2279,2.224,2.2266,2.2244,2.2204,2.2197,2.2188,2.2107,2.2128,2.21,2.2053,2.2025,2.2015,2.2007,2.1979,2.1969,2.2094,2.2093,2.2093,0,2.2284,2.2248,2.2268,2.2238,2.2228,2.2262,2.2224,2.2218,2.2204,2.2196,2.2218,2.2171,2.2166,2.2116,2.2097,2.2088,2.2079,2.21,2.2015,2.2007,2.2,2.1973,2.1963,2.209,2.2091,2.2091,2.2091,0,2.2193,2.2167,2.2138,2.2126,2.2113,2.2079,2.2094,2.2078,2.2093,2.2099,2.2059,2.2056,2.2036,2.2025,2.2038,2.1977,2.1989,2.2012,2.205,2.1985,2.196,2.195,2.2086,2.2087,2.2088,2.2088,0,0,2.2075,2.2078,2.2066,2.2063,2.2059,2.2039,2.2007,2.199,2.1976,2.1966,2.194,2.1907,2.193,2.1919,2.1932,2.1908,2.1846,2.1934,2.1934,2.1918,2.178,2.1762,2.175,2.186,2.1858,2.1856,2.1781,0,2.1996,2.1943,2.1962,2.1907,2.1884,2.1917,2.1889,2.1883,2.1888,2.1869,2.1874,2.1852,2.1882,2.1877,2.1854,2.1858,2.1818,2.1864,2.1835,2.1834,2.1836,2.1737,2.1718,2.1648,2.1771,2.177,2.1769,0,2.1897,2.1886,2.183,2.1832,2.1823,2.1798,2.1785,2.1766,2.1761,2.1766,2.1757,2.1775,2.1744,2.1782,2.1739,2.177,2.1759,2.1759,2.1757,2.1755,2.1797,2.1733,2.1625,2.1615,2.1754,2.1755,2.1756,0,2.1818,2.1789,2.1752,2.1747,2.1749,2.1731,2.173,2.1728,2.1717,2.1705,2.1698,2.1682,2.1672,2.1659,2.1673,2.1699,2.1628,2.1667,2.1632,2.1632,2.1615,2.1616,2.1505,2.1608,2.1608,2.1608,2.1608,0,2.1728,2.1693,2.1717,2.1694,2.1656,2.1677,2.1638,2.1641,2.1639,2.1617,2.1643,2.1622,2.1642,2.1622,2.1633,2.1596,2.1592,2.1595,2.1598,2.1593,2.1592,2.1586,2.1591,2.1605,2.1606,2.1607,2.1607,0,2.1633,2.1648,2.161,2.1616,2.1617,2.1588,2.1593,2.1572,2.158,2.1552,2.1547,2.1559,2.1537,2.155,2.1528,2.1535,2.1488,2.1498,2.149,2.1493,2.1457,2.1461,2.1338,2.1323,2.1435,2.1434,2.1433,0,2.1575,2.1549,2.1553,2.1542,2.154,2.152,2.1511,2.1531,2.1519,2.1513,2.1492,2.1474,2.146,2.1425,2.1431,2.1414,2.1424,2.1382,2.1421,2.1417,2.1424,2.1426,2.1424,2.1374,2.1373,2.1372,2.1371,0,2.147,2.148,2.1465,2.1454,2.1441,2.1433,2.1426,2.1414,2.1435,2.142,2.14,2.139,2.1369,2.135,2.1337,2.1335,2.1356,2.1359,2.135,2.1344,2.1341,2.1343,2.1469,2.1361,2.1362,2.1363,2.1363,2.1364,2.1393,2.1372,2.1372,2.1355,2.1353,2.1347,2.1328,2.1335,2.1319,2.1305,2.1318,2.1294,2.1291,2.1275,2.1272,2.1253,2.127,2.1256,2.1253,2.125,2.1245,2.1344,2.125,2.1251,2.1251,2.1251,2.1251,0,2.129,2.1293,2.1277,2.1269,2.1256,2.1279,2.1273,2.126,2.124,2.1236,2.1223,2.12,2.1183,2.1189,2.1173,2.1157,2.1167,2.1153,2.1154,2.1154,2.1231,2.124,2.1145,2.1145,2.1145,2.1145,2.1146,2.1146,2.1235,2.1202,2.1212,2.1178,2.118,2.1159,2.1154,2.1148,2.1146,2.112,2.1107,2.1111,2.1112,2.1097,2.1082,2.1084,2.1078,2.106,2.1066,2.1137,2.1148,2.1158,2.1167,2.1058,2.1058,2.0991,2.099,2.0989]}]]